Simultaneous Nadir Overpasses (SNOs) Predictions

Prediction of SNOs over PacNW region [( 10.00, 139.50) to ( 22.70, 165.60)] between AQUA and NPP Satellites:

Table of predicted SNOs over PacNW region for the next 30.0 days since TLE Epoch: 11/15/2013
Index Date (AQUA) Time (AQUA) AQUA Lat,Lon Date (NPP) Time (NPP) NPP Lat,Lon Distance(km) Time Diff (sec)
1 11/21/2013 15:10:44 22.63, 159.64 11/21/2013 15:12:21 23.13, 157.30 246.08 97
2 11/24/2013 03:32:35 22.69, 147.31 11/24/2013 03:29:05 24.43, 145.38 275.95 210
3 11/29/2013 16:00:07 22.58, 147.29 11/29/2013 16:03:03 23.18, 144.67 276.78 176
4 12/07/2013 15:10:27 22.61, 159.72 12/07/2013 15:12:16 23.11, 157.39 245.35 109
5 12/10/2013 03:32:11 22.64, 147.42 12/10/2013 03:28:42 23.45, 145.72 196.16 209




NCC Satellite Simultaneous Nadir Overpasses (SNOs) Prediction Service
